Location: Lake Harris Campground
(43.9775°N, 74.1317°W)
Time: 07:43:23
(UTC-04:00)

ISS - All Passes

Search period start: 24 April 2014 00:00
Search period end: 04 May 2014 00:00
Orbit: 413 x 418 km, 51.6° (Epoch: 24 April)

Date Brightness Start Highest point End Pass type
(mag) Time Alt. Az. Time Alt. Az. Time Alt. Az.
24 Apr - 13:23:23 10° SSW 13:26:19 29° SE 13:29:17 10° ENE daylight
24 Apr - 14:59:44 10° W 15:02:57 45° NNW 15:06:11 10° NE daylight
24 Apr - 16:37:34 10° WNW 16:40:15 22° N 16:42:56 10° NE daylight
24 Apr - 18:14:42 10° NW 18:17:41 29° NNE 18:20:40 10° E daylight
24 Apr - 19:51:17 10° WNW 19:54:38 68° SW 19:57:57 10° SE daylight
25 Apr - 12:35:20 10° S 12:37:40 18° SE 12:40:00 10° E daylight
25 Apr - 14:10:45 10° WSW 14:14:04 67° NNW 14:17:24 10° NE daylight
25 Apr - 15:48:26 10° WNW 15:51:13 24° N 15:54:00 10° NE daylight
25 Apr - 17:25:52 10° NW 17:28:41 24° N 17:31:30 10° ENE daylight
25 Apr - 19:02:26 10° NW 19:05:48 74° NNE 19:09:08 10° ESE daylight
25 Apr - 20:40:00 10° W 20:42:09 16° SW 20:44:17 10° S visible
26 Apr - 11:48:21 10° SE 11:48:59 10° SE 11:49:37 10° ESE daylight
26 Apr - 13:21:50 10° SW 13:25:09 77° SSE 13:28:29 10° ENE daylight
26 Apr - 14:59:12 10° WNW 15:02:07 27° NNW 15:05:04 10° NE daylight
26 Apr - 16:36:52 10° NW 16:39:33 22° N 16:42:15 10° ENE daylight
26 Apr - 18:13:33 10° NW 18:16:49 48° NNE 18:20:04 10° ESE daylight
26 Apr - 19:50:31 10° WNW 19:53:23 26° SW 19:56:14 10° SSE daylight
27 Apr - 12:33:01 10° SW 12:36:12 45° SE 12:39:24 10° ENE daylight
27 Apr - 14:09:52 10° W 14:12:58 35° NNW 14:16:05 10° NE daylight
27 Apr - 15:47:41 10° NW 15:50:20 21° N 15:52:58 10° NE daylight
27 Apr - 17:24:35 10° NW 17:27:41 35° NNE 17:30:48 10° E daylight
27 Apr - 19:01:15 10° WNW 19:04:28 45° SW 19:07:39 10° SE daylight
28 Apr - 11:44:23 10° SSW 11:47:13 26° SE 11:50:04 10° ENE daylight
28 Apr - 13:20:32 10° WSW 13:23:46 48° NNW 13:27:02 10° NE daylight
28 Apr - 14:58:20 10° WNW 15:01:01 22° N 15:03:42 10° NE daylight
28 Apr - 16:35:30 10° NW 16:38:26 27° NNE 16:41:22 10° ENE daylight
28 Apr - 18:12:03 10° WNW 18:15:24 77° SW 18:18:43 10° SE daylight
28 Apr - 19:50:53 10° WSW 19:51:33 10° SW 19:52:13 10° SW daylight
29 Apr - 10:56:07 10° S 10:58:13 16° SE 11:00:19 10° E daylight
29 Apr - 12:31:13 10° WSW 12:34:32 74° NNW 12:37:52 10° NE daylight
29 Apr - 14:08:49 10° WNW 14:11:37 24° N 14:14:26 10° NE daylight
29 Apr - 15:46:17 10° NW 15:49:03 23° N 15:51:49 10° ENE daylight
29 Apr - 17:22:51 10° NW 17:26:11 67° NNE 17:29:30 10° ESE daylight
29 Apr - 19:00:13 10° W 19:02:33 18° SW 19:04:54 10° S daylight
30 Apr - 11:41:58 10° SW 11:45:16 67° SE 11:48:35 10° ENE daylight
30 Apr - 13:19:12 10° W 13:22:10 29° NNW 13:25:08 10° NE daylight
30 Apr - 14:56:54 10° NW 14:59:34 22° N 15:02:13 10° ENE daylight
30 Apr - 16:33:36 10° NW 16:36:49 44° NNE 16:40:02 10° E daylight
30 Apr - 18:10:27 10° WNW 18:13:25 30° SW 18:16:22 10° SSE daylight
01 May - 10:52:51 10° SSW 10:55:58 39° SE 10:59:06 10° ENE daylight
01 May - 12:29:32 10° W 12:32:39 37° NNW 12:35:48 10° NE daylight
01 May - 14:07:20 10° NW 14:09:58 21° N 14:12:36 10° NE daylight
01 May - 15:44:16 10° NW 15:47:19 32° NNE 15:50:22 10° E daylight
01 May - 17:20:52 10° WNW 17:24:07 51° SW 17:27:21 10° SE daylight
02 May - 10:03:58 10° S 10:06:38 23° SE 10:09:20 10° E daylight
02 May - 11:39:51 10° WSW 11:43:06 54° NNW 11:46:23 10° NE daylight
02 May - 13:17:35 10° WNW 13:20:17 22° N 13:22:59 10° NE daylight
02 May - 14:54:49 10° NW 14:57:41 26° NNE 15:00:33 10° ENE daylight
02 May - 16:31:20 10° WNW 16:34:40 87° SSW 16:38:00 10° ESE daylight
02 May - 18:09:28 10° WSW 18:10:52 12° SW 18:12:16 10° SSW daylight
03 May - 09:15:33 10° SSE 09:17:17 14° SE 09:19:01 10° E daylight
03 May - 10:50:12 10° WSW 10:53:31 85° NNW 10:56:51 10° ENE daylight
03 May - 12:27:42 10° WNW 12:30:32 25° NNW 12:33:22 10° NE daylight
03 May - 14:05:13 10° NW 14:07:56 23° N 14:10:39 10° ENE daylight
03 May - 15:41:47 10° NW 15:45:05 58° NNE 15:48:22 10° ESE daylight
03 May - 17:18:56 10° W 17:21:30 21° SW 17:24:03 10° S daylight
